www.pogodaiklimat.ru

Погода и климат >> Архив погоды >> Россия >> Костромская область >> Кострома


АРХИВ ПОГОДЫ в Костроме

Время (UTC), дата Ветер
(напр.,м/с)
 
Видим.   Явления Облачность Т
(С)
Тd
(С)
f
(%)
Тe
(С)
Тes
(С)
Комфортность P
(гПа)
Po
(гПа)
Тmin
(С)
Tmax
(С)
R
(мм)
R24
(мм)
S
(см)
18 16.08 ЮВ 2 30 км 9/3 600 м
[Cu hum Ac As Cs]
+11.7 +11.0 95 +10 +10 прохладно 1016.4 1001.2
21 16.08 штиль 0 50 км 9/0
[Cs]
+9.9 +9.4 97 +9 +9 прохладно 1017.0 1001.7
00 17.08 штиль 0 50 км 10/3 600 м
[Cu hum Ac As]
+11.3 +10.9 97 +11 +11 по сезону 1017.3 1002.0
03 17.08 З 1 30 км местами туман поземный 3/1 600 м
[Cu hum Cs]
+10.5 +10.1 97 +10 +10 прохладно 1017.6 1002.3 +9.5
06 17.08 С 3 30 км 4/0
[Ac lent Ci fib]
+16.6 +13.2 80 +16 +21 по сезону 1017.5 1002.5
09 17.08 С 4
{10}
30 км 9/3 600 м
[Cu hum Ci fib]
+19.7 +10.2 54 +21 +25 комфорт 1017.5 1002.6
12 17.08 СВ 2
{10}
30 км 9/1 600 м
[Cu hum Ac trans Ci fib]
+20.2 +10.6 54 +22 +26 комфорт 1016.9 1002.1
15 17.08 СВ 2 30 км 10/5 600 м
[Cb cap Ac trans Ci fib]
+18.7 +12.0 65 +20 +20 тепло 1016.5 1001.7 +20.5
18 17.08 СВ 2 30 км 10/6 600 м
[Sc diur, vesp Ac As Ci fib]
+16.2 +12.9 81 +16 +16 тепло 1016.3 1001.3
21 17.08 СВ 1 50 км слаб. дождь 10/8 600 м
[Sc diur, vesp Ac As]
+15.2 +13.1 87 +16 +16 тепло 1015.4 1000.4
00 18.08 СВ 1 50 км слаб. дождь 10/9 600 м
[Sc diur, vesp Ac As]
+14.9 +14.2 96 +15 +15 тепло 1014.6 999.6
03 18.08 штиль 0 30 км слаб. дождь 10/10 600 м
[Sc]
+15.2 +14.6 96 +15 +15 по сезону 1013.6 998.6 +14.6 6
06 18.08 СВ 1 30 км слаб. дождь 10/10 300 м
[Frnb]
+16.3 +15.5 95 +17 +17 тепло 1013.0 998.1
09 18.08 СВ 2 30 км {дождь} 10/10 300 м
[Frnb]
+17.4 +16.1 92 +18 +18 по сезону 1012.2 997.3
12 18.08 В 2 30 км {дождь} 10/10 300 м
[Frnb]
+19.5 +16.5 83 +22 +22 комфорт 1012.0 997.3
15 18.08 В 1 30 км 10/3 600 м
[Cu Sc Ac cast Ci sp]
+20.4 +17.6 84 +25 +25 комфорт 1012.2 997.5 +20.7 5
18 18.08 В 2 50 км 10/6 600 м
[Cu med, cong Cs]
+18.1 +17.0 93 +19 +19 тепло 1012.9 998.1
21 18.08 В 3 50 км 10/10 600 м
[Cb cap]
+18.1 +17.3 95 +18 +18 тепло 1012.9 998.1
00 19.08 ЮВ 2 50 км в посл. час дождь 10/10 600 м
[Cb cap]
+18.0 +17.5 97 +19 +19 тепло 1013.4 998.6
03 19.08 Ю 2 1200 м дымка {ливн. осадки, туман} 10/3 600 м
[Cu hum Ac lent Cs]
+15.7 +15.3 97 +16 +16 тепло 1013.4 998.5 +15.5 0.0
06 19.08 ЮВ 2 30 км 10/3 600 м
[Cb calv Ci fib]
+18.6 +17.2 92 +20 +23 тепло 1014.2 999.5
09 19.08 Ю 2 30 км слаб. ливневой дождь 10/8 600 м
[Cb calv Ac As]
+19.3 +16.5 84 +22 +22 комфорт 1015.2 1000.4
12 19.08 Ю 2 30 км {ливн. осадки} 10/3 600 м
[Cb calv Ac As]
+21.3 +15.8 71 +25 +26 комфорт 1015.8 1001.1
15 19.08 Ю 2 30 км 1/1 600 м
[Cb calv]
+21.8 +15.9 69 +25 +26 комфорт 1016.5 1001.8 +22.6 0.0
18 19.08 Ю 3 30 км 1/1 600 м
[Cb calv]
+16.1 +15.1 94 +16 +16 тепло 1018.0 1003.0
21 19.08 ЮЗ 3 50 км 3/0
[Cc]
+17.5 +15.5 88 +17 +17 тепло 1018.9 1004.0
00 20.08 Ю 2 50 км ясно +16.2 +15.1 93 +16 +16 тепло 1019.5 1004.5
03 20.08 Ю 2 900 м туман 1/0
[Ci fib]
+14.1 +13.7 97 +13 +14 по сезону 1020.5 1005.4 +13.5
06 20.08 Ю 2 30 км {туман} 1/1 600 м
[Cu hum]
+20.1 +16.7 81 +24 +29 комфорт 1021.1 1006.3
09 20.08 Ю 3 30 км 1/1 600 м
[Cu hum]
+23.8 +15.4 59 +27 +35 жарко 1020.8 1006.2
12 20.08 Ю 1 30 км 1/0
[Ci fib]
+26.4 +16.5 55 +30 +38 душно 1020.2 1005.7
15 20.08 Ю 2 30 км 3/1 600 м
[Cu hum Ci fib]
+24.5 +18.6 70 +29 +30 душно 1020.1 1005.5 +26.5
18 20.08 Ю 2 50 км 8/8 600 м
[Cu hum]
+20.4 +18.4 88 +25 +25 комфорт 1020.8 1006.0
21 20.08 Ю 2 50 км в посл. час ливневой дождь {гроза} 10/8 600 м
[Cb calv Ac As]
+18.6 +17.9 96 +20 +20 тепло 1021.5 1006.7
00 21.08 З 3 50 км 3/0
[Ac As]
+18.1 +17.3 95 +18 +18 тепло 1022.3 1007.4
03 21.08 З 2 30 км 10/0
[Ac As]
+17.8 +17.2 96 +18 +18 тепло 1023.5 1008.6 +17.5 1
06 21.08 СЗ 2 30 км 6/0
[Ac und Ci fib]
+20.3 +17.6 84 +24 +28 комфорт 1024.4 1009.5
09 21.08 СЗ 2 30 км 8/4 600 м
[Cu med, cong Ac As Ci fib]
+22.7 +15.9 65 +27 +31 душно 1024.6 1009.9
12 21.08 С 1 30 км 5/0 600 м
[Ci fib]
+22.7 +13.7 57 +26 +33 жарко 1024.6 1009.8
15 21.08 С 1 30 км 6/0
[Ac und Ci fib]
+21.0 +13.7 63 +25 +26 комфорт 1024.5 1009.7 +23.4
18 21.08 Ю 2 50 км 6/6 600 м
[Cu med, cong Ac As]
+13.2 +12.4 95 +12 +12 по сезону 1024.1 1008.8
21 21.08 Ю 2 50 км 10/0
[Ac As]
+12.7 +11.4 92 +12 +12 по сезону 1023.3 1008.1
00 22.08 Ю 4 50 км 10/0
[Ac As]
+15.9 +12.6 81 +15 +15 тепло 1022.3 1007.2
03 22.08 Ю 6 30 км 10/8 600 м
[Cb cap Ac As]
+15.0 +12.9 87 +13 +13 по сезону 1020.2 1005.1 +12.3
06 22.08 Ю 6 30 км 10/0
[Ac As Cs]
+21.7 +17.5 77 +26 +27 душно 1017.5 1002.8
09 22.08 ЮЗ 4
{11}
30 км 10/1 600 м
[Cu hum Ac trans Cs]
+25.9 +18.5 64 +31 +34 очень
душно
1016.4 1001.9
12 22.08 З 5-13
{14}
30 км {ливн. осадки} 10/9 600 м
[Cu hum Ac trans Cs]
+19.5 +13.4 68 +21 +21 комфорт 1019.1 1004.2
15 22.08 ЮЗ 2
{13}
30 км {ливн. осадки} 10/8 600 м
[Cb cap Ac trans Cs]
+18.3 +12.3 68 +19 +19 тепло 1020.9 1006.0 +26.3 0.0
18 22.08 Ю 2 50 км 10/0
[Ac lent Cs]
+15.4 +12.5 83 +15 +15 по сезону 1022.8 1007.7
21 22.08 Ю 3 50 км ясно +14.2 +11.9 86 +13 +13 по сезону 1024.0 1008.9
00 23.08 Ю 3 50 км ясно +12.8 +11.0 89 +11 +11 по сезону 1025.2 1009.9
03 23.08 Ю 3 30 км 10/0
[Cs]
+12.6 +11.2 91 +11 +11 по сезону 1026.1 1010.8 +12.5
06 23.08 Ю 3 30 км 3/1 600 м
[Cu hum Ci fib]
+16.6 +12.7 78 +16 +20 тепло 1027.1 1012.0
09 23.08 Ю 2 30 км 3/3 600 м
[Cu med, cong Ci fib]
+20.5 +11.4 56 +23 +30 комфорт 1027.2 1012.3
12 23.08 Ю 3 30 км 3/3 600 м
[Cu med, cong Ci fib]
+20.6 +9.9 50 +23 +26 комфорт 1026.9 1012.0

 

Местоположение метеостанции Кострома (Костромская область, Россия): широта 57.73 долгота 40.78 высота над уровнем моря 126 м.

В архиве по умолчанию представлена погода в Костроме за последнюю неделю. Архивные данные за месяц целиком и за предыдущие месяцы, начиная с января 2011 года, Вы можете получить, выбрав интересующий диапазон дат из раскрывающегося списка и нажав кнопку "Ввод!".


*Определитесь, кто Вы:
робот инопланетянин человек

Внимание! Время в таблицах - всемирное. Для получения местного времени необходимо прибавить поправку, которая равна 3 ч.

Смотрите также архив погоды в соседних городах и на ближайших метеорологических станциях:

Погода в Приволжске (Ивановская область, Россия) (49 км)
Погода в Плесе (Ивановская область, Россия) (53 км)
Погода в Ярославле (Ярославская область, Россия) (53 км)
Погода в Ярославле-Музее (Ярославская область, Россия) (55 км)
Погода в Данилове (Ярославская область, Россия) (63 км)
Погода в Гаврилов-Яме (Ярославская область, Россия) (73 км)
Погода в Тутаеве (Ярославская область, Россия) (76 км)
Погода в Иванове (Ивановская область, Россия) (88 км)
Погода в Вичуге (Ивановская область, Россия) (89 км)
Погода в Кинешме (Ивановская область, Россия) (90 км)

Пояснения к столбцам:

Ветер - указаны скорость ветра в м/с - средняя за 10 мин, порывы в срок и между сроками (в фигурных скобках) и направление, откуда дует ветер: С - северный, СВ - северо-восточный, В - восточный, ЮВ - юго-восточный, Ю - южный, ЮЗ - юго-западный, З - западный, СЗ - северо-западный.
Видимость - горизонтальная дальность видимости в метрах или километрах. При видимости от 1 до 10 км при отсутствии осадков обычно наблюдается дымка, при ухудшении видимости до 1 км и менее - туман. В сухую погоду видимость может ухудшаться дымом, пылью или мглою.
Явления - указаны атмосферные явления, наблюдавшиеся в срок или в последний час перед сроком; фигурными скобками обозначены явления, наблюдавшиеся между сроками (за 1-3 часа до срока); квадратными скобками обозначены град или гололедные отложения с указанием их диаметра в мм.
Облачность - указаны через наклонную черту общая и нижняя облачность в баллах и высота нижней границы облаков в метрах; квадратными скобками обозначены формы облаков: Ci - перистые, Cs - перисто-слоистые, Cc - перисто-кучевые, Ac - высококучевые, As - высокослоистые, Sc - слоисто-кучевые, Ns - слоисто-дождевые, Cu - кучевые, Cb - кучево-дождевые. Подробнее классификацию облаков см. в Атласе облаков (PDF).
T - Температура воздуха - температура, измеренная на высоте 2 м над землей.
Td - Температура точки росы - температура, при понижении до которой содержащийся в воздухе водяной пар достигнет насыщения.
f - Относительная влажность воздуха - влажноcть воздуха, измеренная на высоте 2 м над землей.
Te - Эффективная температура - температура, которую ощущает одетый по сезону человек в тени. Характеристика душности погоды. При расчете учитывается влияние влажности воздуха и скорости ветра на теплоощущения человека.
Tes - Эффективная температура на солнце - температура, которую ощущает человек, с поправкой на солнечный нагрев. Характеристика знойности погоды. Зависит от высоты солнца над горизонтом, облачности и скорости ветра. Ночью, в пасмурную погоду, а также при ветре 12 м/с и более поправка равна нулю.
P - Атмосферное давление - приведенное к уровню моря атмосферное давление.
Po - Атмосферное давление - измеренное на уровне метеостанции атмосферное давление.
Tmin - Минимальная температура - минимум температуры воздуха на высоте 2 м над землей.
Tmax - Максимальная температура - максимум температуры воздуха на высоте 2 м над землей.
R - Количество осадков - Количество выпавших осадков за период времени, мм. При наведении курсора мыши на число - период времени, за который выпало указанное количество осадков.
R24 - Количество осадков - Количество выпавших осадков за 24 часа, мм.
S - Снежный покров - Высота снежного покрова, см. При наведении курсора мыши на число - состояние снежного покрова и степень покрытия местности в баллах.